Terminal Aerodrome Forecast
Issued by NWS Upton, NY

Home | Current Version | Previous Version | Text Only | Print | Product List | Glossary On
Versions: 1 2 3 4 5 6 7 8 9 10 11 12 13 14 15 16 17 18 19 20 21 22 23 24 25 26 27 28
481
FTUS41 KOKX 290232 AAA
TAFJFK
TAF AMD
KJFK 290232Z 2903/3006 11010G17KT P6SM -RA SCT015 BKN050
     FM290600 09009G15KT P6SM -RA OVC015
     FM290900 09012G18KT 5SM -RA OVC007
     FM291200 08014G20KT 2SM RA OVC007 PROB30 2912/2916 -TSRA SCT007
      BKN015CB
     FM291600 06008KT 3SM -DZ BR OVC005
     FM292100 05008KT P6SM OVC010=

USA.gov is the U.S. government's official web portal to all federal, state and local government web resources and services.